This is the latest recevied weather packets stored in our database for station/object KB3HLL. If no packets are shown the sender has not sent any weather packets the latest 10 day(s).
| Time | Temp. | Humidity | Pressure | Rain* | Wind** | Luminosity | Snow |
|---|---|---|---|---|---|---|---|
| 1777638377 | 4.44° C | 91% | 1014.7 hPa | 0 mm | - | 106 W/m² | - |
| 1777638078 | 4.44° C | 89% | 1014.8 hPa | 0 mm | - | 144 W/m² | - |
| 1777637778 | 4.44° C | 91% | 1014.8 hPa | 0 mm | - | 325 W/m² | - |
| 1777637478 | 4.44° C | 91% | 1014.8 hPa | 0 mm | - | 314 W/m² | - |
| 1777637178 | 3.89° C | 91% | 1014.7 hPa | 0 mm | - | 269 W/m² | - |
| 1777636878 | 3.89° C | 92% | 1014.8 hPa | 0 mm | - | 251 W/m² | - |
| 1777636577 | 3.89° C | 91% | 1014.8 hPa | 0 mm | - | 176 W/m² | - |
| 1777636277 | 3.89° C | 92% | 1014.8 hPa | 0 mm | - | 237 W/m² | - |
| 1777635978 | 3.89° C | 93% | 1014.8 hPa | 0 mm | - | 210 W/m² | - |
| 1777635677 | 3.33° C | 94% | 1014.8 hPa | 0 mm | - | 195 W/m² | - |
| 1777635378 | 3.33° C | 94% | 1014.7 hPa | 0 mm | - | 181 W/m² | - |
| 1777635078 | 3.33° C | 94% | 1014.6 hPa | 0 mm | - | 167 W/m² | - |
| 1777634778 | 3.33° C | 94% | 1014.6 hPa | 0 mm | - | 153 W/m² | - |
| 1777634478 | 3.33° C | 93% | 1014.7 hPa | 0 mm | - | 139 W/m² | - |
| 1777634178 | 2.78° C | 94% | 1014.6 hPa | 0 mm | - | 124 W/m² | - |
| 1777633877 | 2.78° C | 96% | 1014.3 hPa | 0 mm | - | 112 W/m² | - |
| 1777633578 | 2.78° C | 97% | 1014.2 hPa | 0 mm | - | 100 W/m² | - |
| 1777633278 | 2.22° C | 98% | 1014.2 hPa | 0 mm | - | 73 W/m² | - |
| 1777632977 | 2.22° C | 99% | 1013.9 hPa | 0 mm | - | - | - |
| 1777632678 | 2.22° C | 99% | 1013.9 hPa | 0 mm | - | 41 W/m² | - |
| 1777632378 | 2.22° C | 100% | 1013.7 hPa | 0 mm | - | 37 W/m² | - |
| 1777632077 | 1.67° C | 99% | 1013.4 hPa | 0 mm | - | 38 W/m² | - |
| 1777618578 | 2.78° C | 99% | 1013.3 hPa | 0 mm | - | 0 W/m² | - |
| 1777618277 | 2.78° C | 100% | 1013 hPa | 0 mm | - | 0 W/m² | - |
| 1777617978 | 2.78° C | 100% | 1012.9 hPa | 0 mm | - | 0 W/m² | - |
* Rain latest hour (hover to see other rain measurements)
** Current wind speed in m/s (hover to see current wind gust speed)